Voltar ao catálogo

STARLINK-30402

AtivoComunicaçõesVLEO
NORAD 57827·PAYLOAD·🇺🇸 United States

Lançado Sep 9, 2023 de Cape Canaveral Space Force Station

Loading…

Próximas Passagens (próximas 24 horas)

TLE

AtualizadoSource: CelesTrak SupGP

Época: Sep 15, 2026, 02:41 UTC

1 57827C 23138V   26258.11229167 -.00015704  00000+0 -56896-3 0  2581
2 57827  43.0020 244.3506 0001217 255.6106 293.5155 15.27577686    15

Acompanhe STARLINK-30402 em tempo real com AllMySat

Download on the App Store